Location: Marsån
(66.4167°N, 22.2833°E)
Time: 10:45:15
(UTC+00:00)

PAYLOAD B - Pass Details

Date: 24 February 2024
Orbit: 849 x 870 km, 99.1° (Epoch: 16 April)

Event Time Altitude Azimuth Distance (km) Brightness Sun altitude
Rises 16:55:56 0° 154° (SSE) 3,421 7.1 -9.8°
Reaches altitude 10° 16:58:18 10° 154° (SSE) 2,485 6.4 -10.1°
Maximum altitude 17:03:50 90° 248° (WSW) 861 4.3 -10.6°
Drops below altitude 10° 17:09:23 10° 337° (NNW) 2,492 7.0 -11.2°
Sets 17:11:46 0° 337° (NNW) 3,431 7.7 -11.4°
